www.pogodaiklimat.ru

Погода и климат >> Архив погоды >> Индонезия >> Самаринда


ПОГОДА в Самаринде

  • Прогноз погоды в Самаринде
  • Монитор погоды в Самаринде

АРХИВ ПОГОДЫ в Самаринде

Время (UTC), дата Ветер
(напр.,м/с)
 
Видим.   Явления Облачность Т
(С)
Тd
(С)
f
(%)
Тe
(С)
Тes
(С)
Комфортность P
(гПа)
Po
(гПа)
Тmin
(С)
Tmax
(С)
R
(мм)
R24
(мм)
S
(см)
00 15.07 ЮЗ 2 10 км 5/5 540 м
[Cu med, cong As trans Ci fib]
+25.6 +22.9 85 +34 +36 очень
душно
1012.1 1010.9 +23.8 3
03 15.07 ЮЗ 3 10 км 8/5 540 м
[Cu med, cong As trans Ci fib]
+29.8 +22.4 65 +39 +44 очень
душно
1012.0 1010.8
06 15.07 З 3 10 км 8/5 540 м
[Cu med, cong As trans Ci fib]
+33.4 +19.9 45 +39 +44 очень
душно
1009.4 1008.2
09 15.07 ЮЗ 3 10 км 5/3 540 м
[Cu med, cong As trans Ci fib]
+31.6 +20.5 52 +39 +39 очень
душно
1008.4 1007.2
12 15.07 Ю 2 10 км 5/1 600 м
[Cu hum As trans Ci fib]
+27.4 +22.3 74 +36 +36 очень
душно
1010.6 1009.4 +34.4
00 16.07 Ю 2 10 км 8/4 540 м
[Cu med, cong Ac As Ci fib]
+25.8 +23.1 85 +34 +36 очень
душно
1012.5 1011.3 +23.0
03 16.07 Ю 3 10 км 9/5 540 м
[Cu med, cong As op Ci fib]
+29.6 +22.9 67 +39 +44 очень
душно
1012.0 1010.8
06 16.07 ЮЗ 4 10 км 9/5 540 м
[Cu med, cong As op Ci fib]
+33.6 +21.9 50 +42 +45 опасность
перегрева
1009.5 1008.3
09 16.07 Ю 3 10 км 8/5 540 м
[Cu hum As op Ci fib]
+30.4 +22.5 63 +40 +40 очень
душно
1008.5 1007.3
12 16.07 Ю 2 8000 м 6/4 540 м
[Cu med, cong As op Ci fib]
+27.4 +24.2 83 +38 +38 очень
душно
1010.7 1009.5 +33.8
00 17.07 ЮЗ 2 10 км 8/5 540 м
[Cu med, cong As trans Ci fib]
+26.4 +23.1 82 +35 +37 очень
душно
1011.3 1010.1 +24.4
03 17.07 ЮЗ 3 10 км 9/5 540 м
[Cu med, cong As trans Ci fib]
+30.4 +23.1 65 +41 +45 опасность
перегрева
1010.6 1009.4
06 17.07 Ю 3 10 км 8/5 540 м
[Cu med, cong As op Ci fib]
+32.6 +22.4 55 +42 +47 опасность
перегрева
1008.4 1007.2
09 17.07 Ю 3 10 км 9/5 540 м
[Cu med, cong As op Ci fib]
+30.6 +23.3 65 +41 +42 опасность
перегрева
1007.9 1006.7
12 17.07 Ю 2 10 км 6/3 600 м
[Cu hum As op Ci fib]
+27.8 +23.4 77 +38 +38 очень
душно
1009.7 1008.5 +34.6
00 18.07 ЮЗ 2 10 км 9/4 540 м
[Cu hum As op Ci fib]
+26.8 +23.5 82 +36 +38 очень
душно
1010.6 1009.4 +24.0
03 18.07 Ю 3 10 км 9/5 500 м
[Cu med, cong As op Ci fib]
+30.2 +22.6 64 +40 +44 очень
душно
1010.3 1009.1
06 18.07 ЮВ 1 10 км 9/5 500 м
[Cu med, cong As op Ci fib]
+32.0 +24.0 63 +44 +49 опасность
перегрева
1007.9 1006.7
09 18.07 Ю 2 10 км 9/5 500 м
[Cu med, cong Ac trans Ci fib]
+31.2 +24.3 67 +43 +44 опасность
перегрева
1007.1 1005.9
12 18.07 ЮВ 2 8000 м 9/5 500 м
[Cu med, cong As op Ci fib]
+29.2 +24.9 78 +42 +42 опасность
перегрева
1009.1 1007.9 +32.2
00 19.07 штиль 0 5000 м мгла 9/4 540 м
[Cu med, cong Ac und Ci fib]
+27.0 +24.9 88 +39 +40 очень
душно
1010.7 1009.5 +25.8
03 19.07 СВ 2 5000 м слаб. дождь 10/5
[Cb cap As op Ci fib]
+30.4 +25.3 74 +44 +48 опасность
перегрева
1010.2 1009.0 0.0
06 19.07 СВ 3 10 км {дождь} 8/4 540 м
[Cu med, cong As op Ci fib]
+33.2 +22.8 55 +43 +48 опасность
перегрева
1008.1 1006.9 0.0
09 19.07 В 4 10 км 5/4 540 м
[Cu med, cong As trans Ci fib]
+31.2 +22.7 61 +41 +42 опасность
перегрева
1007.6 1006.4
12 19.07 В 2 10 км 6/4 540 м
[Cu med, cong As op Ci fib]
+28.6 +23.6 74 +39 +39 очень
душно
1009.3 1008.1 +33.4
00 20.07 штиль 0 10 км {дождь} 4/3 600 м
[Cu hum As trans Ci fib]
+28.0 +24.8 83 +40 +44 очень
душно
1011.3 1010.1 +23.6 0.0
03 20.07 СВ 3 10 км 8/5 540 м
[Cu med, cong As op Ci fib]
+32.0 +24.0 63 +44 +49 опасность
перегрева
1010.9 1009.7
06 20.07 В 4 10 км 6/4 540 м
[Cu med, cong As op Ci fib]
+34.2 +23.3 53 +45 +50 опасность
перегрева
1008.5 1007.3
09 20.07 В 4 10 км 4/3 540 м
[Cu med, cong As op Ci fib]
+31.4 +23.9 64 +43 +44 опасность
перегрева
1008.1 1006.9
12 20.07 ЮВ 3 10 км 5/3 540 м
[Cu hum As trans Ci fib]
+28.4 +24.0 77 +39 +39 очень
душно
1009.6 1008.4 +34.4
00 21.07 штиль 0 6000 м 9/5 500 м
[Sc As op Ci fib]
+26.6 +24.5 88 +37 +39 очень
душно
1011.1 1009.9 +23.8
03 21.07 Ю 2 10 км 9/9 500 м
[]
+30.6 +24.6 70 +43 +48 опасность
перегрева
1010.3 1009.1
06 21.07 ЮВ 3 10 км 9/6 500 м
[Cu med, cong As op Ci fib]
+31.6 +23.5 62 +42 +46 опасность
перегрева
1008.3 1007.1
09 21.07 ЮВ 3 10 км {дождь} 8/5 500 м
[Cu med, cong As op Ci fib]
+30.6 +24.3 69 +43 +43 опасность
перегрева
1007.9 1006.7 0.5
12 21.07 штиль 0 8000 м 6/4 500 м
[Cu med, cong As op Ci fib]
+28.8 +24.1 76 +40 +40 очень
душно
1009.1 1007.9 +32.4 0.5

 

Местоположение метеостанции Самаринда (Индонезия): широта -0.62 долгота 117.15 высота над уровнем моря 230 м.

В архиве по умолчанию представлена погода в Самаринде за последнюю неделю. Архивные данные за месяц целиком и за предыдущие месяцы, начиная с января 2011 года, Вы можете получить, выбрав интересующий диапазон дат из раскрывающегося списка и нажав кнопку "Ввод!".


*Определитесь, кто Вы:
робот инопланетянин человек

Внимание! Время в таблицах - всемирное. Для получения местного времени необходимо прибавить поправку, которая равна 8 ч.

Смотрите также архив погоды в соседних городах и на ближайших метеорологических станциях:

Погода в Баликпапане (Индонезия) (77 км)
Погода в Муаратевехе (Индонезия) (253 км)
Погода в Палу (Индонезия) (287 км)
Погода в Маджене (Индонезия) (293 км)
Погода в Танджунгредепе (Индонезия) (307 км)
Погода в Котабару (Индонезия) (326 км)
Погода в Паоанкарая (Индонезия) (353 км)
Погода в Танджунгселоре (Индонезия) (386 км)
Погода в Посо (Индонезия) (407 км)
Погода в Банджармасине (Индонезия) (411 км)

Пояснения к столбцам:

Ветер - указаны скорость ветра в м/с - средняя за 10 мин, порывы в срок и между сроками (в фигурных скобках) и направление, откуда дует ветер: С - северный, СВ - северо-восточный, В - восточный, ЮВ - юго-восточный, Ю - южный, ЮЗ - юго-западный, З - западный, СЗ - северо-западный.
Видимость - горизонтальная дальность видимости в метрах или километрах. При видимости от 1 до 10 км при отсутствии осадков обычно наблюдается дымка, при ухудшении видимости до 1 км и менее - туман. В сухую погоду видимость может ухудшаться дымом, пылью или мглою.
Явления - указаны атмосферные явления, наблюдавшиеся в срок или в последний час перед сроком; фигурными скобками обозначены явления, наблюдавшиеся между сроками (за 1-3 часа до срока); квадратными скобками обозначены град или гололедные отложения с указанием их диаметра в мм.
Облачность - указаны через наклонную черту общая и нижняя облачность в баллах и высота нижней границы облаков в метрах; квадратными скобками обозначены формы облаков: Ci - перистые, Cs - перисто-слоистые, Cc - перисто-кучевые, Ac - высококучевые, As - высокослоистые, Sc - слоисто-кучевые, Ns - слоисто-дождевые, Cu - кучевые, Cb - кучево-дождевые. Подробнее классификацию облаков см. в Атласе облаков (PDF).
T - Температура воздуха - температура, измеренная на высоте 2 м над землей.
Td - Температура точки росы - температура, при понижении до которой содержащийся в воздухе водяной пар достигнет насыщения.
f - Относительная влажность воздуха - влажноcть воздуха, измеренная на высоте 2 м над землей.
Te - Эффективная температура - температура, которую ощущает одетый по сезону человек в тени. Характеристика душности погоды. При расчете учитывается влияние влажности воздуха и скорости ветра на теплоощущения человека.
Tes - Эффективная температура на солнце - температура, которую ощущает человек, с поправкой на солнечный нагрев. Характеристика знойности погоды. Зависит от высоты солнца над горизонтом, облачности и скорости ветра. Ночью, в пасмурную погоду, а также при ветре 12 м/с и более поправка равна нулю.
P - Атмосферное давление - приведенное к уровню моря атмосферное давление.
Po - Атмосферное давление - измеренное на уровне метеостанции атмосферное давление.
Tmin - Минимальная температура - минимум температуры воздуха на высоте 2 м над землей.
Tmax - Максимальная температура - максимум температуры воздуха на высоте 2 м над землей.
R - Количество осадков - Количество выпавших осадков за период времени, мм. При наведении курсора мыши на число - период времени, за который выпало указанное количество осадков.
R24 - Количество осадков - Количество выпавших осадков за 24 часа, мм.
S - Снежный покров - Высота снежного покрова, см. При наведении курсора мыши на число - состояние снежного покрова и степень покрытия местности в баллах.